Date String (YYYY-MM-DD hh:mm:ss) UTC,Instrument flags,Ambient pressure (hPa),Sample flow (lpm),Bypass flow (lpm),Sample temperature (°C),Ambient temperature (°C),ASC tube jacket temperature (°C),LED temperature (°C),Box temperature (°C),Sample RH (%),Span deviation,Mass concentration (μg/m³),Mass concentration (μg/m³),Mass concentration (μg/m³)
DateTimeUTC,F1_M11,P_M11,Q1_M11,Q2_M11,T1_M11,T2_M11,T3_M11,T4_M11,T5_M11,U1_M11,ZSPAN_M11,X0_M11,X2_M11,X1_M11
2021-09-23 05:00:00,,0829.3,5.00,0.00,29.9,28.8,00.0,39.0,31.6,09.9,0000.0,0009.41,0002.68,0001.73
2021-09-23 05:01:00,,0829.3,4.99,0.00,29.9,28.8,00.0,39.0,31.7,09.9,0000.0,0010.38,0002.67,0001.74
2021-09-23 05:02:00,,0829.3,5.01,0.00,29.9,28.8,00.0,39.0,31.7,09.8,0000.0,0011.34,0002.76,0001.75
2021-09-23 05:03:00,,0829.3,5.00,0.00,29.9,28.8,00.0,39.0,31.7,09.8,0000.0,0011.95,0002.78,0001.76
2021-09-23 05:04:00,,0829.2,4.99,0.00,30.0,28.8,00.0,39.0,31.7,09.8,0000.0,0011.81,0002.84,0001.77
2021-09-23 05:05:00,,0829.2,5.01,0.00,30.0,28.8,00.0,39.0,31.7,09.8,0000.0,0011.56,0002.85,0001.79
2021-09-23 05:06:00,,0829.3,5.01,0.00,30.0,28.8,00.0,39.0,31.7,09.8,0000.0,0011.18,0002.87,0001.81
2021-09-23 05:07:00,,0829.5,4.99,0.00,30.0,28.9,00.0,39.0,31.7,09.8,0000.0,0011.14,0002.84,0001.81
2021-09-23 05:08:00,,0829.2,5.00,0.00,30.0,28.9,00.0,39.0,31.8,09.8,0000.0,0011.29,0002.87,0001.82
2021-09-23 05:09:00,,0829.3,5.02,0.00,30.0,28.9,00.0,39.1,31.8,09.8,0000.0,0011.37,0002.88,0001.81
2021-09-23 05:10:00,,0829.3,4.99,0.00,30.0,28.9,00.0,39.1,31.7,09.9,0000.0,0011.20,0002.94,0001.83
2021-09-23 05:11:00,,0829.3,5.01,0.00,30.0,29.0,00.0,39.1,31.8,09.9,0000.0,0010.30,0002.99,0001.84
2021-09-23 05:12:00,,0829.3,5.00,0.00,30.0,29.0,00.0,39.1,31.8,09.8,0000.0,0010.25,0003.00,0001.84
2021-09-23 05:13:00,,0829.3,5.01,0.00,30.0,29.0,00.0,39.1,31.7,09.9,0000.0,0009.83,0002.96,0001.83
2021-09-23 05:14:00,,0829.2,5.00,0.00,30.0,29.0,00.0,39.1,31.8,09.8,0000.0,0008.91,0002.92,0001.85
2021-09-23 05:15:00,,0829.2,5.01,0.00,30.1,29.0,00.0,39.1,31.7,09.8,0000.0,0008.85,0002.88,0001.85
2021-09-23 05:16:00,,0829.2,5.00,0.00,30.1,29.0,00.0,39.1,31.8,09.8,0000.0,0008.99,0002.85,0001.84
2021-09-23 05:17:00,,0829.2,5.01,0.00,30.1,29.0,00.0,39.1,31.7,09.8,0000.0,0009.46,0002.85,0001.84
2021-09-23 05:18:00,,0829.2,5.01,0.00,30.1,29.0,00.0,39.1,31.8,09.7,0000.0,0009.53,0002.87,0001.84
2021-09-23 05:19:00,,0829.3,5.01,0.00,30.1,29.0,00.0,39.2,31.7,09.7,0000.0,0009.29,0002.83,0001.84
2021-09-23 05:20:00,,0829.3,4.99,0.00,30.1,29.0,00.0,39.2,31.8,09.8,0000.0,0009.04,0002.79,0001.84
2021-09-23 05:21:00,,0829.3,5.00,0.00,30.1,29.1,00.0,39.2,31.8,09.8,0000.0,0008.95,0002.75,0001.83
2021-09-23 05:22:00,,0829.2,5.01,0.00,30.1,29.1,00.0,39.2,31.8,09.7,0000.0,0008.70,0002.77,0001.83
2021-09-23 05:23:00,,0829.3,5.01,0.00,30.1,29.1,00.0,39.2,31.8,09.7,0000.0,0008.10,0002.76,0001.84
2021-09-23 05:24:00,,0829.2,4.99,0.00,30.1,29.1,00.0,39.2,31.8,09.7,0000.0,0007.75,0002.74,0001.83
2021-09-23 05:25:00,,0829.2,5.00,0.00,30.1,29.1,00.0,39.2,31.8,09.7,0000.0,0008.36,0002.82,0001.82
2021-09-23 05:26:00,,0829.3,5.00,0.00,30.1,29.1,00.0,39.2,31.9,09.7,0000.0,0009.42,0002.86,0001.83
2021-09-23 05:27:00,,0829.3,5.00,0.00,30.1,29.1,00.0,39.2,31.9,09.7,0000.0,0009.76,0002.85,0001.84
2021-09-23 05:28:00,,0829.2,5.01,0.00,30.2,29.1,00.0,39.2,31.9,09.7,0000.0,0009.46,0002.84,0001.84
2021-09-23 05:29:00,,0829.3,4.99,0.00,30.2,29.1,00.0,39.2,31.9,09.7,0000.0,0009.72,0002.86,0001.85
2021-09-23 05:30:00,,0829.3,5.01,0.00,30.2,29.1,00.0,39.3,31.9,09.6,0000.0,0009.64,0002.87,0001.85
2021-09-23 05:31:00,,0829.3,5.00,0.00,30.2,29.1,00.0,39.3,31.9,09.6,0000.0,0009.90,0002.97,0001.86
2021-09-23 05:32:00,,0829.3,4.99,0.00,30.2,29.1,00.0,39.3,31.9,09.7,0000.0,0009.99,0003.00,0001.87
2021-09-23 05:33:00,,0829.3,5.00,0.00,30.2,29.1,00.0,39.3,31.9,09.7,0000.0,0009.80,0002.93,0001.87
2021-09-23 05:34:00,,0829.2,4.99,0.00,30.2,29.1,00.0,39.3,31.9,09.6,0000.0,0009.68,0002.89,0001.85
2021-09-23 05:35:00,,0829.2,5.01,0.00,30.2,29.2,00.0,39.3,31.9,09.6,0000.0,0009.42,0002.86,0001.85
2021-09-23 05:36:00,,0829.2,5.00,0.00,30.2,29.1,00.0,39.3,31.9,09.6,0000.0,0009.97,0002.78,0001.85
2021-09-23 05:37:00,,0829.3,5.01,0.00,30.2,29.1,00.0,39.3,31.8,09.6,0000.0,0009.02,0002.71,0001.83
2021-09-23 05:38:00,,0829.2,4.99,0.00,30.2,29.1,00.0,39.3,31.8,09.6,0000.0,0008.31,0002.72,0001.82
2021-09-23 05:39:00,,0829.3,5.00,0.00,30.2,29.1,00.0,39.3,31.9,09.7,0000.0,0008.27,0002.73,0001.82
2021-09-23 05:40:00,,0829.3,5.01,0.00,30.2,29.2,00.0,39.3,31.9,09.6,0000.0,0007.74,0002.67,0001.82
2021-09-23 05:41:00,,0829.3,5.00,0.00,30.2,29.2,00.0,39.3,31.9,09.7,0000.0,0007.74,0002.63,0001.82
2021-09-23 05:42:00,,0829.3,4.99,0.00,30.2,29.1,00.0,39.3,31.9,09.7,0000.0,0007.67,0002.54,0001.80
2021-09-23 05:43:00,,0829.3,5.01,0.00,30.2,29.1,00.0,39.3,31.9,09.7,0000.0,0007.49,0002.48,0001.79
2021-09-23 05:44:00,,0829.2,4.99,0.00,30.2,29.2,00.0,39.3,31.9,09.6,0000.0,0007.48,0002.41,0001.78
2021-09-23 05:45:00,,0829.2,4.99,0.00,30.2,29.1,00.0,39.3,31.9,09.6,0000.0,0007.64,0002.47,0001.78
2021-09-23 05:46:00,,0829.1,5.01,0.00,30.2,29.1,00.0,39.4,31.8,09.5,0000.0,0007.79,0002.53,0001.79
2021-09-23 05:47:00,,0829.1,4.99,0.00,30.2,29.1,00.0,39.4,31.9,09.5,0000.0,0007.17,0002.52,0001.78
2021-09-23 05:48:00,,0829.0,5.00,0.00,30.2,29.1,00.0,39.4,31.9,09.5,0000.0,0007.17,0002.50,0001.78
2021-09-23 05:49:00,,0829.0,5.02,0.00,30.2,29.2,00.0,39.4,31.9,09.4,0000.0,0006.88,0002.46,0001.76
2021-09-23 05:50:00,,0829.1,5.00,0.00,30.2,29.1,00.0,39.4,31.9,09.4,0000.0,0006.76,0002.42,0001.75
2021-09-23 05:51:00,,0829.1,4.99,0.00,30.2,29.1,00.0,39.4,31.9,09.4,0000.0,0006.67,0002.42,0001.74
2021-09-23 05:52:00,,0829.1,5.00,0.00,30.2,29.2,00.0,39.4,31.9,09.5,0000.0,0006.71,0002.42,0001.73
2021-09-23 05:53:00,,0829.1,5.01,0.00,30.2,29.2,00.0,39.4,31.9,09.5,0000.0,0006.34,0002.38,0001.71
2021-09-23 05:54:00,,0829.0,4.99,0.00,30.2,29.2,00.0,39.4,31.9,09.5,0000.0,0006.48,0002.32,0001.71
2021-09-23 05:55:00,,0829.0,5.00,0.00,30.2,29.1,00.0,39.4,31.8,09.4,0000.0,0006.62,0002.33,0001.71
2021-09-23 05:56:00,,0829.0,5.01,0.00,30.2,29.1,00.0,39.4,31.9,09.4,0000.0,0006.28,0002.27,0001.71
2021-09-23 05:57:00,,0829.0,4.99,0.00,30.2,29.2,00.0,39.4,31.9,09.5,0000.0,0006.03,0002.21,0001.68
2021-09-23 05:58:00,,0829.0,5.02,0.00,30.2,29.1,00.0,39.4,31.9,09.5,0000.0,0005.10,0002.21,0001.66
2021-09-23 05:59:00,,0829.0,5.00,0.00,30.2,29.1,00.0,39.4,31.9,09.4,0000.0,0004.25,0002.20,0001.65
